Overview Statistics Trail Chart Weather Telemetry Raw packets
 

This is the latest recevied weather packets stored in our database for station/object XE2B-20. If no packets are shown the sender has not sent any weather packets the latest 10 day(s).

<< 5 6 7 8 9 10 11 >>
Time Temp. Humidity Pressure Rain* Wind** Luminosity Snow
1788425095 14.44° C 66% 809.9 hPa - - - -
1788423596 15° C 66% 810.1 hPa - - - -
1788422097 15° C 65% 810.4 hPa - - - -
1788420598 15.56° C 65% 810.6 hPa - - - -
1788419100 15° C 65% 810.8 hPa - - - -
1788417602 15.56° C 64% 810.9 hPa - - - -
1788416103 15.56° C 64% 811 hPa - - - -
1788414638 15.56° C 64% 810.7 hPa - - - -
1788414604 15.56° C 64% 810.7 hPa - - - -
1788413106 15.56° C 64% 810.4 hPa - - - -
1788411607 16.11° C 63% 810.5 hPa - - - -
1788410108 16.67° C 63% 810.6 hPa - - - -
1788408617 16.67° C 62% 810.5 hPa - - - -
1788407110 17.22° C 62% 810.2 hPa - - - -
1788405612 17.22° C 62% 809.9 hPa - - - -
1788404113 17.78° C 61% 809.7 hPa - - - -
1788402620 18.89° C 60% 809 hPa - - - -
1788401117 18.89° C 60% 808.6 hPa - - - -
1788399619 18.33° C 61% 808.5 hPa - - - -
1788398120 18.33° C 62% 808.7 hPa - - - -
1788396622 20° C 61% 808.9 hPa - - - -
1788395131 21.11° C 59% 808.8 hPa - - - -
1788393625 22.78° C 57% 808.8 hPa - - - -
1788392128 23.33° C 57% 808.2 hPa - - - -
1788390630 23.33° C 58% 808 hPa - - - -

* Rain since midnight (hover to see other rain measurements)
** Current wind speed in m/s (hover to see current wind gust speed)